Volver al catálogo

ARIANE 5 R/B

ActivoHEO
NORAD 29165·ROCKET BODY·🇫🇷 France

Lanzado May 27, 2006 desde Guiana Space Centre

Loading…

Próximos Pases (próximas 24 horas)

TLE

ActualizadoSource: Space-Track

Época: Sep 14, 2026, 11:38 UTC

1 29165U 06020D   26257.48495713  .00000011  00000-0  62129-4 0  9990
2 29165   6.8292  47.2803 5519838   8.0679 358.0027  4.56578455249408

Sigue ARIANE 5 R/B en tiempo real con AllMySat

Download on the App Store